MXY1014 KORF-KTPA

Flight info

Callsign MXY1014
Flight time N/A
Altitude 38000
Route NUTIY1 NUTIY DCT COUPN DCT BEETN DCT JIMAR DCT DEEEZ Q409 PUPYY DCT BAAMF DADES2
Aircraft E190/M-SDE3GILORVW/S

Departure

Time 2026-05-08 00:00
Airport Norfolk International Airport (KORF)

Arrival

Time N/A
Airport Tampa International Airport (KTPA)
Time Latitude Longitude Altitude Speed Heading
2026-05-07 23:35 36.89636 -76.20255 27 ft 0 kts 86°
2026-05-07 23:50 36.89635 -76.20267 27 ft 2 kts 86°
2026-05-07 23:50 36.89635 -76.20286 27 ft 2 kts 86°
2026-05-07 23:50 36.89634 -76.20304 27 ft 2 kts 86°
2026-05-07 23:50 36.89633 -76.20322 27 ft 2 kts 97°
2026-05-07 23:51 36.89638 -76.20340 27 ft 2 kts 121°
2026-05-07 23:51 36.89646 -76.20353 27 ft 0 kts 142°
2026-05-07 23:51 36.89648 -76.20355 27 ft 0 kts 143°
2026-05-07 23:53 36.89647 -76.20354 27 ft 1 kts 143°
2026-05-07 23:53 36.89630 -76.20337 27 ft 5 kts 143°
2026-05-07 23:53 36.89570 -76.20278 27 ft 13 kts 139°
2026-05-07 23:54 36.89497 -76.20205 27 ft 13 kts 168°
2026-05-07 23:54 36.89414 -76.20252 27 ft 13 kts 217°
2026-05-07 23:54 36.89338 -76.20328 27 ft 14 kts 219°
2026-05-07 23:54 36.89260 -76.20408 26 ft 15 kts 219°
2026-05-07 23:55 36.89172 -76.20483 26 ft 15 kts 211°
2026-05-07 23:55 36.89071 -76.20558 25 ft 17 kts 211°
2026-05-07 23:55 36.88967 -76.20641 25 ft 18 kts 216°
2026-05-07 23:55 36.88864 -76.20740 24 ft 19 kts 218°
2026-05-07 23:56 36.88758 -76.20845 22 ft 20 kts 218°
2026-05-07 23:56 36.88672 -76.20898 22 ft 0 kts 172°
2026-05-07 23:57 36.88662 -76.20895 22 ft 4 kts 166°
2026-05-07 23:57 36.88621 -76.20840 22 ft 11 kts 102°
2026-05-07 23:57 36.88643 -76.20771 22 ft 0 kts 41°
2026-05-07 23:59 36.88677 -76.20740 22 ft 13 kts 35°
2026-05-07 23:59 36.88914 -76.20511 25 ft 78 kts 37°
2026-05-07 23:59 36.89519 -76.19929 27 ft 139 kts 38°
2026-05-08 00:00 36.90381 -76.19101 289 ft 164 kts 36°
2026-05-08 00:00 36.91315 -76.18264 912 ft 173 kts 35°
2026-05-08 00:00 36.92279 -76.17413 1793 ft 172 kts 34°
2026-05-08 00:00 36.93355 -76.16901 2624 ft 172 kts 355°
2026-05-08 00:01 36.94387 -76.17532 3461 ft 173 kts 308°
2026-05-08 00:01 36.94720 -76.18924 4304 ft 177 kts 272°
2026-05-08 00:01 36.94698 -76.20506 4840 ft 196 kts 272°
2026-05-08 00:01 36.94681 -76.22379 5038 ft 236 kts 271°
2026-05-08 00:02 36.94668 -76.24534 5508 ft 261 kts 272°
2026-05-08 00:02 36.94659 -76.26805 6528 ft 264 kts 271°
2026-05-08 00:02 36.94653 -76.29047 7753 ft 258 kts 270°
2026-05-08 00:02 36.94649 -76.31217 8860 ft 253 kts 269°
2026-05-08 00:03 36.94644 -76.33392 9831 ft 252 kts 269°
2026-05-08 00:03 36.94640 -76.35551 10702 ft 253 kts 269°
2026-05-08 00:03 36.94633 -76.37775 11392 ft 261 kts 268°
2026-05-08 00:03 36.94623 -76.40072 11952 ft 273 kts 268°
2026-05-08 00:04 36.94611 -76.42474 12563 ft 282 kts 268°
2026-05-08 00:04 36.94598 -76.44939 13287 ft 287 kts 268°
2026-05-08 00:04 36.94585 -76.47420 14110 ft 288 kts 268°
2026-05-08 00:04 36.94571 -76.49884 14965 ft 287 kts 268°
2026-05-08 00:05 36.94557 -76.52374 15785 ft 287 kts 268°
2026-05-08 00:05 36.94403 -76.54851 16500 ft 289 kts 253°
2026-05-08 00:05 36.93494 -76.57081 17146 ft 296 kts 242°
2026-05-08 00:05 36.92400 -76.59293 17829 ft 299 kts 243°
2026-05-08 00:06 36.91312 -76.61481 18538 ft 300 kts 243°
2026-05-08 00:06 36.90219 -76.63679 19251 ft 300 kts 243°
2026-05-08 00:06 36.89128 -76.65868 19968 ft 300 kts 243°
2026-05-08 00:06 36.88021 -76.68087 20650 ft 300 kts 243°
2026-05-08 00:07 36.86915 -76.70303 21312 ft 301 kts 243°
2026-05-08 00:07 36.85827 -76.72481 21944 ft 301 kts 243°
2026-05-08 00:07 36.84710 -76.74719 22523 ft 303 kts 243°
2026-05-08 00:07 36.83606 -76.76924 23124 ft 302 kts 244°
2026-05-08 00:08 36.82494 -76.79147 23724 ft 303 kts 244°
2026-05-08 00:08 36.81391 -76.81348 24255 ft 304 kts 244°
2026-05-08 00:08 36.80259 -76.83608 24807 ft 306 kts 245°
2026-05-08 00:08 36.79135 -76.85850 25336 ft 307 kts 245°
2026-05-08 00:09 36.78004 -76.88106 25903 ft 307 kts 244°
2026-05-08 00:09 36.76874 -76.90353 26487 ft 306 kts 245°
2026-05-08 00:09 36.75757 -76.92577 26975 ft 308 kts 245°
2026-05-08 00:09 36.74622 -76.94836 27482 ft 308 kts 245°
2026-05-08 00:10 36.73479 -76.97107 28011 ft 308 kts 246°
2026-05-08 00:10 36.72350 -76.99348 28477 ft 309 kts 245°
2026-05-08 00:10 36.71216 -77.01614 28959 ft 308 kts 247°
2026-05-08 00:10 36.70160 -77.03902 29368 ft 309 kts 248°
2026-05-08 00:11 36.69081 -77.06241 29771 ft 311 kts 248°
2026-05-08 00:11 36.67984 -77.08612 30132 ft 314 kts 247°
2026-05-08 00:11 36.66889 -77.10973 30522 ft 316 kts 248°
2026-05-08 00:11 36.65785 -77.13351 30892 ft 318 kts 248°
2026-05-08 00:12 36.64677 -77.15736 31254 ft 320 kts 248°
2026-05-08 00:12 36.63557 -77.18146 31608 ft 322 kts 248°
2026-05-08 00:12 36.62441 -77.20542 32028 ft 322 kts 248°
2026-05-08 00:12 36.61323 -77.22943 32491 ft 320 kts 248°
2026-05-08 00:13 36.60219 -77.25311 32984 ft 318 kts 248°
2026-05-08 00:13 36.59125 -77.27659 33484 ft 315 kts 248°
2026-05-08 00:13 36.58022 -77.30022 33969 ft 313 kts 249°
2026-05-08 00:13 36.56945 -77.32330 34413 ft 312 kts 248°
2026-05-08 00:14 36.55863 -77.34646 34857 ft 310 kts 248°
2026-05-08 00:14 36.54784 -77.36954 35230 ft 310 kts 248°
2026-05-08 00:14 36.53695 -77.39281 35616 ft 310 kts 248°
2026-05-08 00:14 36.52613 -77.41592 35970 ft 310 kts 248°
2026-05-08 00:15 36.51537 -77.43890 36292 ft 311 kts 248°
2026-05-08 00:15 36.50442 -77.46223 36643 ft 310 kts 248°
2026-05-08 00:15 36.49361 -77.48530 36985 ft 310 kts 248°
2026-05-08 00:15 36.48275 -77.50841 37300 ft 310 kts 248°
2026-05-08 00:16 36.47191 -77.53151 37597 ft 310 kts 248°
2026-05-08 00:16 36.46106 -77.55456 37863 ft 309 kts 248°
2026-05-08 00:16 36.43963 -77.60016 37914 ft 313 kts 249°
2026-05-08 00:17 36.41724 -77.64771 37908 ft 325 kts 248°
2026-05-08 00:17 36.39393 -77.69712 37939 ft 337 kts 247°
2026-05-08 00:18 36.36997 -77.74780 37929 ft 339 kts 246°
2026-05-08 00:18 36.34625 -77.79792 37929 ft 339 kts 247°
2026-05-08 00:19 36.32250 -77.84803 37927 ft 338 kts 248°
2026-05-08 00:19 36.29330 -77.89502 37936 ft 360 kts 232°
2026-05-08 00:20 36.27283 -77.91328 37937 ft 375 kts 224°
2026-05-08 00:20 36.24853 -77.92725 37942 ft 396 kts 214°
2026-05-08 00:20 36.22101 -77.93588 37937 ft 414 kts 205°
2026-05-08 00:20 36.19274 -77.94190 37930 ft 411 kts 208°
2026-05-08 00:21 36.13781 -77.95863 37929 ft 405 kts 211°
2026-05-08 00:21 36.08339 -77.97656 37926 ft 404 kts 211°
2026-05-08 00:22 36.02927 -77.99453 37927 ft 405 kts 210°
2026-05-08 00:22 35.97483 -78.01257 37925 ft 408 kts 211°
2026-05-08 00:23 35.91966 -78.03084 37922 ft 406 kts 211°
2026-05-08 00:23 35.86543 -78.04878 37921 ft 405 kts 210°
2026-05-08 00:24 35.81077 -78.06682 37916 ft 405 kts 210°
2026-05-08 00:24 35.75626 -78.08479 37927 ft 407 kts 210°
2026-05-08 00:25 35.70157 -78.10281 37922 ft 405 kts 210°
2026-05-08 00:25 35.64759 -78.12054 37918 ft 403 kts 210°
2026-05-08 00:26 35.59288 -78.13852 37922 ft 407 kts 210°
2026-05-08 00:26 35.53851 -78.15634 37928 ft 405 kts 210°
2026-05-08 00:27 35.48396 -78.17420 37924 ft 406 kts 210°
2026-05-08 00:27 35.42912 -78.19212 37918 ft 406 kts 210°
2026-05-08 00:28 35.37418 -78.21008 37916 ft 409 kts 210°
2026-05-08 00:28 35.31935 -78.22793 37916 ft 404 kts 210°
2026-05-08 00:29 35.29271 -78.23814 37914 ft 390 kts 217°
2026-05-08 00:29 35.26944 -78.25288 37916 ft 377 kts 226°
2026-05-08 00:29 35.22848 -78.29067 37911 ft 370 kts 230°
2026-05-08 00:30 35.18758 -78.32917 37907 ft 372 kts 229°
2026-05-08 00:30 35.14660 -78.36771 37910 ft 372 kts 230°
2026-05-08 00:31 35.10590 -78.40592 37913 ft 371 kts 230°
2026-05-08 00:31 35.06483 -78.44445 37910 ft 369 kts 230°
2026-05-08 00:32 35.02421 -78.48251 37905 ft 368 kts 229°
2026-05-08 00:32 34.98319 -78.52089 37908 ft 370 kts 230°
2026-05-08 00:33 34.94230 -78.55911 37904 ft 373 kts 229°
2026-05-08 00:33 34.90132 -78.59734 37900 ft 373 kts 229°
2026-05-08 00:34 34.86007 -78.63577 37895 ft 373 kts 229°
2026-05-08 00:34 34.81865 -78.67434 37917 ft 375 kts 228°
2026-05-08 00:35 34.77774 -78.71236 37905 ft 371 kts 229°
2026-05-08 00:35 34.73663 -78.75053 37909 ft 375 kts 229°
2026-05-08 00:36 34.69503 -78.78909 37911 ft 375 kts 229°
2026-05-08 00:36 34.65400 -78.82708 37906 ft 371 kts 229°
2026-05-08 00:37 34.61254 -78.86544 37903 ft 377 kts 229°
2026-05-08 00:38 34.55047 -78.92274 37889 ft 373 kts 228°
2026-05-08 00:38 34.50908 -78.96089 37881 ft 374 kts 229°
2026-05-08 00:39 34.46778 -78.99882 37884 ft 374 kts 229°
2026-05-08 00:39 34.42619 -79.03662 37885 ft 377 kts 226°
2026-05-08 00:40 34.38347 -79.07314 37881 ft 378 kts 227°
2026-05-08 00:40 34.34074 -79.10973 37884 ft 375 kts 227°
2026-05-08 00:41 34.29814 -79.14619 37874 ft 377 kts 227°
2026-05-08 00:41 34.25534 -79.18308 37871 ft 372 kts 230°
2026-05-08 00:42 34.21563 -79.22267 37876 ft 373 kts 231°
2026-05-08 00:42 34.17586 -79.26193 37864 ft 371 kts 230°
2026-05-08 00:43 34.13583 -79.30133 37863 ft 371 kts 231°
2026-05-08 00:43 34.09601 -79.34049 37863 ft 372 kts 230°
2026-05-08 00:44 34.05597 -79.37981 37860 ft 371 kts 230°
2026-05-08 00:44 34.01600 -79.41901 37857 ft 372 kts 231°
2026-05-08 00:45 33.97597 -79.45821 37852 ft 369 kts 230°
2026-05-08 00:45 33.93621 -79.49710 37853 ft 369 kts 230°
2026-05-08 00:46 33.89642 -79.53598 37852 ft 372 kts 231°